Miscellaneous Local Product
Issued by NWS North Platte, NE

Home | Current Version | Previous Version | Graphics & Text | Print | Product List | Glossary On
Versions: 1 2 3 4 5 6 7 8 9 10 11 12 13 14 15 16 17 18 19 20 21 22 23 24 25 26 27 28 29 30 31 32 33 34 35 36 37 38 39 40 41 42 43 44 45 46 47 48 49 50
000
AXUS43 KLBF 270810
MISLBF


WESTERN AND NORTH CENTRAL NEBRASKA HOURLY WEATHER ROUNDUP
NATIONAL WEATHER SERVICE NORTH PLATTE NE
300 AM CDT TUE JUN 27 2017

NOTE: "FAIR" INDICATES FEW OR NO CLOUDS BELOW 12,000 FEET WITH NO
SIGNIFICANT WEATHER AND/OR OBSTRUCTIONS TO VISIBILITY.

NOTE: STATIONS NOT REPORTING VARIABLES SUCH AS SKY/WEATHER OR
PRESSURE ARE PROVIDED BY RAWS AND APRS NETWORKS AND ARE NOT UNDER
NATIONAL WEATHER SERVICE QUALITY CONTROL.

...OBSERVATIONS IN AND NEAR THE EASTERN PANHANDLE OF NEBRASKA...

CITY           SKY/WX    TMP DP  RH WIND       PRES   REMARKS
PINE RIDGE     CLEAR     63  45  51 S26G35    29.97F
GORDON         FAIR      59  45  58 S9        30.03F
CHADRON        CLEAR     66  48  52 S31G40    29.93F
ALLIANCE       CLEAR     59  50  72 S16G26    30.04F
SIDNEY         PTCLDY    60  53  77 S17       30.08F
CRESCENT LAKE    N/A     60  51  71 S12G20      N/A
$$

...OBSERVATIONS IN NORTHERN NEBRASKA AND FAR SOUTHERN SOUTH DAKOTA...

CITY           SKY/WX    TMP DP  RH WIND       PRES   REMARKS
WINNER         FAIR      59  41  51 S20       30.05F
VALENTINE      CLEAR     58  42  55 S8        30.06F
THEDFORD       CLEAR     54  46  73 SE6       30.09F
AINSWORTH      CLEAR     54  45  72 S12       30.08F
O`NEILL        CLEAR     50  44  80 S7        30.11S
ORD            CLEAR     51  45  79 E3        30.10F
BROKEN BOW     CLEAR     53  48  83 SE5       30.11S
VALENTINE NWR    N/A     53  43  69 S8          N/A
HALSEY           N/A     56  45  67 SE7         N/A
BUTTE            N/A     51  42  70 SE8         N/A
CHAMBERS         N/A     51  41  69 CALM        N/A
EWING            N/A     50  45  84 CALM        N/A
$$

...OBSERVATIONS IN SOUTHWEST NEBRASKA AND FAR NORTHEAST COLORADO...

CITY           SKY/WX    TMP DP  RH WIND       PRES   REMARKS
WRAY           FAIR      59  54  82 SE9       30.10F
IMPERIAL       CLEAR     60  55  83 SE12      30.09F
OGALLALA       CLEAR     61  52  72 SE6       30.09F
NORTH PLATTE   CLEAR     55  52  89 E9        30.09F
MCCOOK         PTCLDY    61  59  93 E9        30.09F
LEXINGTON      CLEAR     60  57  91 SE9       30.11F
STAPLETON        N/A     57  53  87 CALM        N/A
GOTHENBURG       N/A     57  51  81 SE5         N/A
CALLAWAY         N/A     59  55  88 S16         N/A
$$

...OBSERVATIONS IN CENTRAL LINCOLN COUNTY AREA...

CITY           SKY/WX    TMP DP  RH WIND       PRES   REMARKS
N.P. AIRPORT   CLEAR     55  52  89 E9        30.09F
N.P. DOWNTOWN    N/A     61  56  84 CALM        N/A
N.P. SOUTHEAST   N/A     60  55  83 SE6         N/A
N.P. HILLCREST   N/A     57  53  87 SE12        N/A
$$

...SOME OBSERVATIONS FROM AROUND THE REGION...

CITY           SKY/WX    TMP DP  RH WIND       PRES   REMARKS
DENVER         PTCLDY    67  42  40 SW18      30.07F
LIMON          CLEAR     55  54  96 SE5       30.14F
ASPEN          CLOUDY    54  29  38 SW8       30.22F
LARAMIE        CLEAR     55  51  86 S21       30.13F
CASPER         CLOUDY    72  40  31 S20       29.92F
CHEYENNE       PTCLDY    57  54  89 S13       30.12F
SCOTTSBLUFF    CLOUDY    64  54  69 SE14      30.02F
GRAND ISLAND   CLEAR     58  58 100 SE7       30.13F FOG
OMAHA          CLEAR     57  49  74 CALM      30.14S
SIOUX FALLS    CLEAR     49  46  90 CALM      30.11F
PIERRE         PTCLDY    56  40  55 SE12      30.00F
RAPID CITY     MOCLDY    56  41  57 SE9       29.94F
BISMARCK       PTCLDY    60  40  47 S14       29.94F
KANSAS CITY    CLEAR     58  56  93 SE6       30.14F
HILL CITY      CLEAR     62  61  96 E9        30.08F
WICHITA        MOCLDY    67  66  97 E10       30.06F
DODGE CITY     CLOUDY    65  60  84 E6        30.05F
OKLAHOMA CITY  MOCLDY    67  62  84 SE8       30.06S
DALLAS         PTCLDY    77  69  76 SE7       30.01F
AMARILLO       PTCLDY    66  63  90 S10       30.14R
$$




USA.gov is the U.S. government's official web portal to all federal, state and local government web resources and services.